Powrót do katalogu

TAURUS 2

AktywnyŁącznośćVLEO
NORAD 66306·PAYLOAD·🇹🇷 Turkey
Ta nazwa satelity nie została jeszcze potwierdzona przez oficjalne źródła.

Wystrzelony Nov 2, 2025 z Cape Canaveral Space Force Station

Loading…

Następne Przeloty (najbliższe 24 godziny)

TLE

ŚwieżeSource: Space-Track

Epoka: Sep 14, 2026, 14:46 UTC

1 66306U 25248P   26257.61561480  .00014163  00000-0  48828-3 0  9993
2 66306  45.4033 348.2284 0011072 229.3020 130.6908 15.29942999 48280

Śledź TAURUS 2 w czasie rzeczywistym z AllMySat

Download on the App Store